[Date Prev][Date Next][Thread Prev][Thread Next] - [Date Index][Thread Index][Author Index]
2 Line ISS Keps 5-27
- Subject: [sarex] 2 Line ISS Keps 5-27
- From: "Dave Larsen PhD" <doc@xxxxxxxxxxx>
- Date: Tue, 27 May 2003 04:23:29 -0700
ISS
1 25544U 98067A 03147.16604167 .00009914 00000-0 12856-3 0 502
2 25544 51.6296 125.8678 0006659 161.9207 14.1560 15.59531625257722
----
Via the sarex mailing list at AMSAT.ORG courtesy of AMSAT-NA.
To unsubscribe, send "unsubscribe sarex" to Majordomo@amsat.org
AMSAT Home